{"data":{"norad_id":63896,"epoch":"2026-09-20T02:45:23.795136Z","epoch_age_seconds":180278,"freshness":"STALE","line1":"1 63896U 25095G   26263.11485874  .00010065  00000+0  37472-3 0  9997","line2":"2 63896  43.0011 158.1199 0001272 282.8375  77.2335 15.27584654 77529","mean_motion":15.27584654,"eccentricity":0.0001272,"inclination_deg":43.0011,"raan_deg":158.1199,"arg_perigee_deg":282.8375,"mean_anomaly_deg":77.2335,"bstar":0.00037472,"rev_number":7752,"period_min":94.266461516836,"perigee_km":482.16241922597,"apogee_km":483.90790142356,"semimajor_km":6861.1721603248,"source":"CELESTRAK","updated_at":"2026-09-21T09:00:35.144150Z"}}